Regional Weather Roundup
Issued by NWS Albany, NY

Home | Current Version | Previous Version | Text Only | Print | Product List | Glossary On
Versions: 1 2 3 4 5 6 7 8 9 10 11 12 13 14 15 16 17 18 19 20 21 22 23 24 25 26 27 28 29 30 31 32 33 34 35 36 37 38 39 40 41 42 43 44 45 46 47 48 49 50
000
ASUS41 KALY 281310
RWRALY

NEW YORK STATE HOURLY WEATHER ROUNDUP
NATIONAL WEATHER SERVICE ALBANY NY
900 AM EDT MON JUL 28 2014

NOTE: "FAIR" INDICATES FEW OR NO CLOUDS BELOW 12,000 FEET WITH NO
SIGNIFICANT WEATHER AND/OR NO OBSTRUCTIONS TO VISIBILITY.

NYZ032-033-038>043-046>054-057>066-NYZ062>081-281400-
EAST


CITY           SKY/WX    TMP DP  RH WIND       PRES   REMARKS
ALBANY         CLOUDY    66  63  90 N8        29.54F
GLENS FALLS    LGT RAIN  64  62  93 N6        29.55F
POUGHKEEPSIE   CLOUDY    72  68  87 S3        29.53R
MONTGOMERY     CLOUDY    72  67  84 SW8       29.55R
WHITE PLAINS   PTSUNNY   71  68  90 VRB6      29.56S
ISLIP          PTSUNNY   75  67  76 S8        29.56R
NEW YORK CITY  PTSUNNY   74  66  76 S9        29.55S
CENTRAL PARK   CLOUDY    72  67  84 MISG      29.58S
$$

NYZ005>009-017-018-044>046-055-056-281400-
CENTRAL


CITY           SKY/WX    TMP DP  RH WIND       PRES   REMARKS
FULTON         HVY RAIN  64  62  93 NE8G17    29.55F FOG
SYRACUSE       HVY RAIN  64  63  94 NE8       29.54S VSB 1
ROME           CLOUDY    64  63  96 NE3       29.55F
ELMIRA         CLOUDY    69  64  84 SW7       29.53S
BINGHAMTON     CLOUDY    66  62  87 S6        29.56S
MONTICELLO     CLOUDY    70  63  78 SW6       29.60R
$$

NYZ026>034-041>043-281400-
NORTH


CITY           SKY/WX    TMP DP  RH WIND       PRES   REMARKS
WATERTOWN      LGT RAIN  64  60  87 NE12      29.59R FOG
FORT DRUM      NOT AVBL
MASSENA        LGT RAIN  63  61  93 NE9       29.64S
SARANAC LAKE   LGT RAIN  60  59  96 NE10      29.61F FOG
PLATTSBURGH    LGT RAIN  64  63  96 N14       29.61F FOG
$$

NYZ001>004-010>016-019>021-281400-
WEST


CITY           SKY/WX    TMP DP  RH WIND       PRES   REMARKS
NIAGARA FALLS  LGT RAIN  62  60  93 N16G23    29.63R
BUFFALO        LGT RAIN  62  59  90 N17       29.62R
DUNKIRK        LGT RAIN  63  62  97 NW15G24   29.62R FOG
JAMESTOWN      CLOUDY    61  59  94 W7        29.65R
WELLSVILLE     CLOUDY    63  58  83 W8        29.62F
ROCHESTER      HVY RAIN  64  62  93 N20G31    29.58R VSB 1
PENN YAN       CLOUDY    64  62  93 VRB5      29.53S
$$

             KEY
       WCI = WIND CHILL INDEX
       VSB = VISIBILITY
       HX  = HEAT INDEX
$$


USA.gov is the U.S. government's official web portal to all federal, state and local government web resources and services.